Weather History for KEHR - February, 2013

Change the Weather History Date:

Monday, February 11, 2013

  Actual Average Record
Temperature  
Mean Temperature 43 °F -  
Max Temperature 53 °F 46 °F 78 °F (1932)
Min Temperature 33 °F 27 °F 2 °F (1955)
Degree Days  
Heating Degree Days 22    
Moisture  
Dew Point 28 °F    
Average Humidity 52    
Maximum Humidity 76    
Minimum Humidity 38    
Precipitation  
Precipitation 0.00 in - - ()
Sea Level Pressure  
Sea Level Pressure 30.02 in    
Wind  
Wind Speed 14 mph (WSW)    
Max Wind Speed 21 mph    
Max Gust Speed 28 mph    
Visibility 10 miles    
Events      
Averages and records for this station are not official NWS values.
T = Trace of Precipitation, MM = Missing Value Source: NWS Daily Summary

Daily Weather History Graph

Daily Weather History Graph

Search for Another Location

Airport or City:

Trip Planner

Search our weather history database for the weather conditions in past years. The results will help you decide how hot, cold, wet, or windy it might be!

Date:

Astronomy

Feb. 11, 2013 Rise Set
Actual Time 6:44 AM CST 5:25 PM CST
Civil Twilight 6:17 AM CST 5:52 PM CST
Nautical Twilight 5:46 AM CST 6:23 PM CST
Astronomical Twilight 5:16 AM CST 6:54 PM CST
Moon 7:11 AM CST (2/11) 7:19 PM CST (2/11)
Length of Visible Light 11h 35m
Length of Day
10h 41m
Waxing Crescent, 3% of the Moon is Illuminated
Feb 11
Waxing Crescent
Feb 17
First Quarter
Feb 25
Full
Mar 4
Last Quarter
Mar 11
New

Hourly Weather History & Observations

Time (CST) Temp. Windchill Dew Point Humidity Pressure Visibility Wind Dir Wind Speed Gust Speed Precip Events Conditions
12:15 AM 53.6 °F - 44.6 °F 72% 29.82 in 10.0 mi SW 13.8 mph - N/A   Clear
12:35 AM 51.8 °F - 44.6 °F 76% 29.82 in 10.0 mi SW 11.5 mph - N/A   Clear
12:55 AM 51.8 °F - 44.6 °F 76% 29.83 in 10.0 mi SW 12.7 mph - N/A   Clear
1:15 AM 51.8 °F - 42.8 °F 71% 29.84 in 10.0 mi SW 12.7 mph - N/A   Clear
1:35 AM 51.8 °F - 42.8 °F 71% 29.85 in 10.0 mi SW 15.0 mph - N/A   Clear
1:55 AM 51.8 °F - 42.8 °F 71% 29.85 in 10.0 mi SW 16.1 mph - N/A   Clear
2:15 AM 51.8 °F - 39.2 °F 62% 29.85 in 10.0 mi SW 16.1 mph - N/A   Clear
2:35 AM 50.0 °F - 37.4 °F 62% 29.86 in 10.0 mi SW 12.7 mph - N/A   Clear
2:55 AM 50.0 °F - 35.6 °F 58% 29.86 in 10.0 mi WSW 16.1 mph 23.0 mph N/A   Clear
3:15 AM 50.0 °F - 33.8 °F 54% 29.87 in 10.0 mi WSW 17.3 mph - N/A   Clear
3:35 AM 48.2 °F - 33.8 °F 58% 29.88 in 10.0 mi WSW 15.0 mph - N/A   Clear
3:55 AM 48.2 °F - 30.2 °F 50% 29.89 in 10.0 mi West 15.0 mph - N/A   Clear
4:15 AM 48.2 °F - 30.2 °F 50% 29.90 in 10.0 mi West 18.4 mph 24.2 mph N/A   Clear
4:35 AM 46.4 °F 39.8 °F 28.4 °F 50% 29.92 in 10.0 mi West 16.1 mph 23.0 mph N/A   Clear
4:56 AM 46.4 °F 39.5 °F 26.6 °F 46% 29.93 in 10.0 mi West 17.3 mph 23.0 mph N/A   Clear
5:15 AM 44.6 °F 38.1 °F 24.8 °F 46% 29.95 in 10.0 mi West 13.8 mph - N/A   Clear
5:35 AM 42.8 °F 34.3 °F 24.8 °F 49% 29.95 in 10.0 mi West 19.6 mph 27.6 mph N/A   Clear
5:55 AM 42.8 °F 35.8 °F 24.8 °F 49% 29.97 in 10.0 mi West 13.8 mph 19.6 mph N/A   Clear
6:15 AM 42.8 °F 34.3 °F 24.8 °F 49% 29.98 in 10.0 mi West 19.6 mph 26.5 mph N/A   Clear
6:35 AM 41.0 °F 32.8 °F 24.8 °F 53% 29.99 in 10.0 mi West 16.1 mph 26.5 mph N/A   Clear
6:55 AM 39.2 °F 29.6 °F 23.0 °F 52% 30.01 in 10.0 mi West 19.6 mph 25.3 mph N/A   Clear
7:15 AM 39.2 °F 30.5 °F 23.0 °F 52% 30.02 in 10.0 mi West 16.1 mph 19.6 mph N/A   Clear
7:35 AM 39.2 °F 32.5 °F 23.0 °F 52% 30.03 in 10.0 mi WSW 10.4 mph 19.6 mph N/A   Clear
7:55 AM 41.0 °F 34.7 °F 24.8 °F 53% 30.04 in 10.0 mi WSW 10.4 mph - N/A   Clear
8:15 AM 42.8 °F 36.2 °F 24.8 °F 49% 30.04 in 10.0 mi WSW 12.7 mph - N/A   Clear
8:35 AM 42.8 °F 36.2 °F 24.8 °F 49% 30.05 in 10.0 mi West 12.7 mph 20.7 mph N/A   Clear
8:55 AM 42.8 °F 35.4 °F 24.8 °F 49% 30.05 in 10.0 mi WSW 15.0 mph 23.0 mph N/A   Clear
9:15 AM 44.6 °F 37.4 °F 26.6 °F 49% 30.06 in 10.0 mi WSW 16.1 mph 23.0 mph N/A   Clear
9:35 AM 44.6 °F 36.6 °F 26.6 °F 49% 30.07 in 10.0 mi WSW 19.6 mph 26.5 mph N/A   Clear
9:55 AM 44.6 °F 36.6 °F 26.6 °F 49% 30.07 in 10.0 mi West 19.6 mph 25.3 mph N/A   Clear
10:15 AM 46.4 °F 39.2 °F 26.6 °F 46% 30.07 in 10.0 mi West 18.4 mph 26.5 mph N/A   Clear
10:35 AM 46.4 °F 39.8 °F 26.6 °F 46% 30.07 in 10.0 mi West 16.1 mph 25.3 mph N/A   Clear
10:55 AM 46.4 °F 40.1 °F 26.6 °F 46% 30.06 in 10.0 mi West 15.0 mph 20.7 mph N/A   Clear
11:15 AM 46.4 °F 39.8 °F 26.6 °F 46% 30.07 in 10.0 mi West 16.1 mph 26.5 mph N/A   Clear
11:35 AM 46.4 °F 40.1 °F 28.4 °F 50% 30.06 in 10.0 mi West 15.0 mph 20.7 mph N/A   Clear
12:15 PM 48.2 °F - 28.4 °F 46% 30.07 in 10.0 mi WSW 18.4 mph - N/A   Clear
12:35 PM 48.2 °F - 28.4 °F 46% 30.07 in 10.0 mi West 19.6 mph 25.3 mph N/A   Clear
12:55 PM 50.0 °F - 28.4 °F 43% 30.07 in 10.0 mi WSW 16.1 mph 23.0 mph N/A   Clear
1:15 PM 50.0 °F - 28.4 °F 43% 30.07 in 10.0 mi WSW 20.7 mph - N/A   Clear
1:35 PM 51.8 °F - 28.4 °F 41% 30.07 in 10.0 mi West 11.5 mph - N/A   Clear
2:15 PM 51.8 °F - 28.4 °F 41% 30.06 in 10.0 mi West 16.1 mph 26.5 mph N/A   Clear
2:35 PM 51.8 °F - 28.4 °F 41% 30.06 in 10.0 mi West 13.8 mph 18.4 mph N/A   Clear
2:55 PM 51.8 °F - 28.4 °F 41% 30.06 in 10.0 mi West 16.1 mph 25.3 mph N/A   Clear
3:15 PM 51.8 °F - 28.4 °F 41% 30.06 in 10.0 mi West 12.7 mph - N/A   Clear
3:35 PM 51.8 °F - 28.4 °F 41% 30.07 in 10.0 mi West 17.3 mph 23.0 mph N/A   Clear
3:55 PM 51.8 °F - 26.6 °F 38% 30.07 in 10.0 mi West 15.0 mph 24.2 mph N/A   Clear
4:55 PM 48.2 °F - 26.6 °F 43% 30.06 in 10.0 mi West 15.0 mph 18.4 mph N/A   Clear
5:15 PM 48.2 °F - 24.8 °F 40% 30.06 in 10.0 mi WNW 12.7 mph - N/A   Clear
5:35 PM 46.4 °F 41.5 °F 24.8 °F 43% 30.07 in 10.0 mi West 10.4 mph - N/A   Clear
5:55 PM 46.4 °F 43.5 °F 24.8 °F 43% 30.08 in 10.0 mi West 5.8 mph - N/A   Clear
6:15 PM 44.6 °F 41.4 °F 24.8 °F 46% 30.08 in 10.0 mi West 5.8 mph - N/A   Clear
6:35 PM 42.8 °F 39.3 °F 24.8 °F 49% 30.09 in 10.0 mi WNW 5.8 mph - N/A   Clear
6:55 PM 42.8 °F 39.3 °F 24.8 °F 49% 30.10 in 10.0 mi West 5.8 mph - N/A   Clear
7:15 PM 39.2 °F 35.0 °F 24.8 °F 56% 30.10 in 10.0 mi West 5.8 mph - N/A   Clear
7:35 PM 37.4 °F 34.9 °F 23.0 °F 56% 30.10 in 10.0 mi West 3.5 mph - N/A   Clear
7:55 PM 37.4 °F 32.1 °F 23.0 °F 56% 30.10 in 10.0 mi SSW 6.9 mph - N/A   Clear
8:15 PM 35.6 °F 30.7 °F 21.2 °F 56% 30.11 in 10.0 mi SSW 5.8 mph - N/A   Clear
8:35 PM 35.6 °F 32.8 °F 21.2 °F 56% 30.12 in 10.0 mi SW 3.5 mph - N/A   Clear
8:55 PM 35.6 °F 31.7 °F 21.2 °F 56% 30.12 in 10.0 mi WSW 4.6 mph - N/A   Clear
9:35 PM 35.6 °F 30.7 °F 21.2 °F 56% 30.14 in 10.0 mi SW 5.8 mph - N/A   Clear
9:55 PM 33.8 °F 29.6 °F 21.2 °F 60% 30.14 in 10.0 mi WSW 4.6 mph - N/A   Clear
10:15 PM 35.6 °F 31.7 °F 21.2 °F 56% 30.14 in 10.0 mi WSW 4.6 mph - N/A   Clear
10:35 PM 35.6 °F 31.7 °F 21.2 °F 56% 30.15 in 10.0 mi SW 4.6 mph - N/A   Clear
11:15 PM 33.8 °F 27.7 °F 21.2 °F 60% 30.15 in 10.0 mi SW 6.9 mph - N/A   Clear
11:35 PM 33.8 °F 28.6 °F 23.0 °F 65% 30.15 in 10.0 mi WSW 5.8 mph - N/A   Clear
11:55 PM 35.6 °F 30.7 °F 24.8 °F 65% 30.15 in 10.0 mi WSW 5.8 mph - N/A   Clear